Regional Weather Roundup
Issued by NWS

Home | Current Version | Previous Version | Text Only | Print | Product List | Glossary Off
Versions: 1 2 3 4 5 6 7 8 9 10 11 12 13 14 15 16 17 18 19 20 21 22 23 24 25 26 27 28 29 30 31 32 33 34 35 36 37 38 39 40 41 42 43 44 45 46 47 48 49

000
ASUS45 KSLC 071610
RWRUT

UTAH REGIONAL WEATHER ROUNDUP
NATIONAL WEATHER SERVICE SALT LAKE CITY UT
1000 AM MDT TUE JUL 07 2015

UTZ001>011-023>025-071700-

NORTHERN UTAH

CITY           SKY/WX    TMP DP  RH WIND       PRES   REMARKS
BRIGHAM CITY   SUNNY     74  55  50 CALM      30.09S
HILL AFB       MOSUNNY   74  55  49 E7        30.11S
LOGAN            N/A     71  56  58 NW8       30.10S
OGDEN          SUNNY     76  52  43 S7        30.08S
PROVO AIRPORT  MOSUNNY   73  50  43 SE5       30.12F
SALT LAKE CITY MOSUNNY   76  55  48 SE8       30.07S
VERNAL         PTSUNNY   69  52  54 S5        30.15S
WENDOVER       MOSUNNY   77  48  36 E8        30.08F
HEBER CITY     MOSUNNY   66  50  55 CALM      30.18S
WEST JORDAN    MOSUNNY   75  52  43 SE12      30.10F

$$

UTZ012>022-026-027-071700-

SOUTHERN/CENTRAL UTAH

CITY           SKY/WX    TMP DP  RH WIND       PRES   REMARKS
BLANDING       MOSUNNY   68  54  60 E3        30.27F
BRYCE CANYON   CLOUDY    58  50  75 NE9       30.33S
CEDAR CITY     CLOUDY    66  54  65 S9        30.18F
DELTA          PTSUNNY   74  48  39 SW6       30.13S
HANKSVILLE     CLOUDY    68  57  68 W6        30.16S
MILFORD        CLOUDY    70  52  52 SW14      30.14F
MOAB/CYNLANDS  CLOUDY    73  56  54 W6        30.11S
PRICE          PTSUNNY   64  54  69 W5        30.20S
ST GEORGE      MOSUNNY   75  59  57 CALM      30.07S
KANAB          CLOUDY    66  55  68 CALM      30.23F

$$

REGIONAL REPORTS     COLORADO/ARIZONA

CITY           SKY/WX    TMP DP  RH WIND       PRES   REMARKS
CRAIG, CO      CLOUDY    62  54  74 CALM      30.22
GRAND JUNCTION CLOUDY    70  55  59 W5        30.14S
RIFLE          CLOUDY    62  58  86 NE3       30.19R
MONTROSE       PTSUNNY   70  48  45 VRB3      30.20S
CORTEZ         MOSUNNY   71  53  52 N9        30.22S
PAGE, AZ       NOT AVBL
GRAND CANYON   PTSUNNY   67  51  56 N7        30.28F
KINGMAN        MOSUNNY   85  46  25 E6        30.06F
FLAGSTAFF      SUNNY     70  46  42 NW8       30.31S

$$

REGIONAL REPORTS    NEVADA/IDAHO/WYOMING

CITY           SKY/WX    TMP DP  RH WIND       PRES   REMARKS
LAS VEGAS, NV  MOSUNNY   86  55  34 CALM      29.95S
ELY            MOSUNNY   68  45  43 CALM      30.22F
ELKO           SUNNY     74  45  35 CALM      30.13F
POCATELLO, ID  MOSUNNY   73  53  49 VRB3      30.12S
BURLEY         SUNNY     74  53  48 E6        30.08S
EVANSTON, WY   MOSUNNY   62  51  67 SE5       30.25F
ROCK SPRINGS   PTSUNNY   60  53  77 W7        30.24S
KEMMERER       MOSUNNY   59  50  72 CALM      30.28S

$$


USA.gov is the U.S. government's official web portal to all federal, state and local government web resources and services.